Location: Ferchesar
(52.6477°N, 12.4298°E)
Time: 10:02:10
(UTC+01:00)

Tiros 1 - Pass Details

Date: 12 December 2021
Orbit: 629 x 664 km, 48.4° (Epoch: 25 January)

Event Time Altitude Azimuth Distance (km) Brightness Sun altitude
Rises 14:46:56 0° 194° (SSW) 2,903 11.9 6.4°
Reaches altitude 10° 14:50:28 10° 166° (SSE) 2,002 10.3 6.0°
Maximum altitude 14:52:27 13° 140° (SE) 1,830 9.7 5.9°
Drops below altitude 10° 14:54:28 10° 114° (ESE) 2,011 9.6 5.7°
Sets 14:58:01 0° 86° (E) 2,928 10.1 5.3°
